Location: Clifton Park
(41.4873°N, 81.8024°W)
Time: 12:12:44
(UTC+00:00)

Okean O Rocket - Pass Details

Date: 21 January 2020
Orbit: 623 x 645 km, 98.2° (Epoch: 16 February)

Event Time Altitude Azimuth Distance (km) Brightness Sun altitude
Rises 11:23:53 0° 10° (N) 2,963 5.0 -15.7°
Reaches altitude 10° 11:26:07 10° 7° (N) 2,047 4.2 -15.3°
Maximum altitude 11:30:32 66° 286° (WNW) 700 1.5 -14.5°
Drops below altitude 10° 11:34:54 10° 204° (SSW) 2,022 4.1 -13.7°
Sets 11:37:06 0° 202° (SSW) 2,922 5.0 -13.3°
